sat.trackr.live / text

‹ back to catalog

ALTAIR (RS65S)

NORAD 61779 · 2024-199AW

PAYLOAD ACTIVE UNKNOWN

§ Identity

Operator
Country
CIS
Launch date
2024-11-04
Launch site
VOSTO
Launch vehicle
Mass (kg)
RCS (m²)

Purposes: comms

External: N2YO · Heavens-Above · Gunter

§ Orbital elements

Epoch: 2026-09-19T22:01:43.021920Z

Period
93.59 min
Inclination
97.2871°
Eccentricity
0.0011239
Mean motion
15.38597442 rev/d
Perigee alt
442.6 km
Apogee alt
457.9 km
Semi-major
6,828.4 km
B*
1.5107e-4
RAAN
131.6757°
Arg perigee
333.1343°
Mean anomaly
26.9319°
Rev number
15,167

§ Raw data

ALTAIR (RS65S)1 61779U 24199AW  26262.91785905  .00005685  00000+0  15107-3 0  99972 61779  97.2871 131.6757 0011239 333.1343  26.9319 15.38597442151670

JSON: /api/v1/satellites/61779 · /tle

For live sub-satellite position, see the globe view (requires WebGL).

§ Visibility from observer

Set your observer location to see the next 7 days of passes ≥ 10°. The values pass through the URL so the page stays shareable.

No JS? Fill the form by hand. The geolocation button needs JavaScript.

§ Radio — SatNOGS DB

ModeDescriptionDownlinkUplink
BPSK Mode U - BPSK (DOKA) - 4k8 435.615 MHz
BPSK Mode U - BPSK (DOKA) - 4k8 435.715 MHz
AFSK Mode U - Transmitter 435.215 MHz

3 transmitters · refreshed weekly from db.satnogs.org